Location: *
(18.5200°S, 46.4500°E)
Time: 23:32:29
(UTC+00:00)

Meteor 2-1 Rocket - Pass Details

Date: 19 July 2019
Orbit: 830 x 907 km, 81.3° (Epoch: 21 August)

Event Time Altitude Azimuth Distance (km) Brightness Sun altitude
Rises 15:51:33 0° 356° (N) 3,457 7.7 -18.0°
Reaches altitude 10° 15:53:59 10° 357° (N) 2,513 6.9 -18.5°
Maximum altitude 15:59:42 85° 85° (E) 870 4.1 -19.8°
Drops below altitude 10° 16:05:21 10° 173° (S) 2,487 6.4 -21.1°
Enters shadow 16:05:52 - 173° (S) 2,684 6.6 -21.2°
